{"data":{"norad_id":63737,"intl_designator":"2025-088P","name":"KUIPER-00023","alt_names":[],"object_type":"PAYLOAD","status":"ACTIVE","operator":null,"country":"US","launch_date":"2025-04-28","launch_site_code":"AFETR","launch_vehicle":null,"mission":null,"orbit_class":"UNKNOWN","rcs_meters":null,"size_class":null,"mass_kg":null,"dimensions":null,"purposes":[],"wikipedia_slug":null,"has_3d_model":false,"image_url":null,"decayed_at":null,"tle_current":{"epoch":"2026-05-25T05:29:06.368352Z","epoch_age_seconds":55321,"freshness":"FRESH","line1":"1 63737U 25088P   26145.22854593  .00001478  00000+0  22288-3 0  9999","line2":"2 63737  51.8997 127.0920 0000707  66.6060 293.4977 14.79925782 59094","mean_motion":14.79925782,"eccentricity":7.07e-5,"inclination_deg":51.8997,"raan_deg":127.092,"arg_perigee_deg":66.606,"mean_anomaly_deg":293.4977,"bstar":0.00022288,"rev_number":5909,"period_min":97.302176738482,"perigee_km":629.06297063916,"apogee_km":630.0538587708,"semimajor_km":7007.695414705,"source":"CELESTRAK","updated_at":"2026-05-25T13:38:03.927889Z"}}}